Tiempo cada hora Cayuny

Hoy, 15 Enero, Viernes

Tiempo Temperatura Precipitaciones Viento Presión Humedad
00:00 -15°C° 0 mm 3 mps 744 mmHg 93%
01:00 -15°C° 0 mm 3 mps 744 mmHg 94%
02:00 -17°C° 0 mm 4 mps 744 mmHg 95%
03:00 -16°C° 0 mm 3 mps 744 mmHg 94%
04:00 -17°C° 0 mm 3 mps 744 mmHg 94%
05:00 -17°C° 0 mm 3 mps 744 mmHg 94%
06:00 -18°C° 0 mm 3 mps 744 mmHg 94%
07:00 -18°C° 0 mm 3 mps 745 mmHg 95%
08:00 -17°C° 0 mm 2 mps 745 mmHg 96%
09:00 -18°C° 0 mm 3 mps 745 mmHg 95%
10:00 -18°C° 0 mm 3 mps 745 mmHg 93%
11:00 -18°C° 0 mm 3 mps 746 mmHg 92%
12:00 -18°C° 0 mm 3 mps 746 mmHg 91%
13:00 -18°C° 0 mm 3 mps 746 mmHg 90%
14:00 -18°C° 0 mm 3 mps 746 mmHg 89%
15:00 -19°C° 0 mm 3 mps 746 mmHg 92%
16:00 -19°C° 0 mm 2 mps 746 mmHg 94%
17:00 -20°C° 0 mm 2 mps 746 mmHg 96%
18:00 -21°C° 0 mm 2 mps 747 mmHg 96%
19:00 -21°C° 0 mm 2 mps 747 mmHg 97%
20:00 -21°C° 0 mm 2 mps 747 mmHg 97%
21:00 -21°C° 0 mm 2 mps 747 mmHg 98%
22:00 -21°C° 0 mm 2 mps 747 mmHg 98%
23:00 -21°C° 0 mm 2 mps 747 mmHg 98%

Mañana, 16 Enero, Sábado

Tiempo Temperatura Precipitaciones Viento Presión Humedad
00:00 -21°C° 0 mm 2 mps 747 mmHg 98%
01:00 -21°C° 0 mm 2 mps 747 mmHg 98%
02:00 -21°C° 0 mm 2 mps 747 mmHg 98%
03:00 -21°C° 0 mm 2 mps 747 mmHg 97%
04:00 -20°C° 0 mm 2 mps 746 mmHg 97%
05:00 -19°C° 0 mm 2 mps 746 mmHg 96%
06:00 -19°C° 0 mm 2 mps 746 mmHg 96%
07:00 -17°C° 0 mm 1 mps 746 mmHg 96%
08:00 -17°C° 0 mm 1 mps 747 mmHg 96%
09:00 -16°C° 0 mm 1 mps 747 mmHg 95%
10:00 -16°C° 0 mm 1 mps 747 mmHg 95%
11:00 -16°C° 0 mm 1 mps 747 mmHg 94%
12:00 -15°C° 0 mm 1 mps 747 mmHg 92%
13:00 -15°C° 0 mm 1 mps 747 mmHg 91%
14:00 -14°C° 0 mm 0 mps 747 mmHg 89%
15:00 -16°C° 0 mm 1 mps 747 mmHg 91%
16:00 -17°C° 0 mm 1 mps 747 mmHg 94%
17:00 -18°C° 0 mm 1 mps 747 mmHg 96%
18:00 -19°C° 0 mm 1 mps 747 mmHg 96%
19:00 -20°C° 0 mm 1 mps 748 mmHg 96%
20:00 -20°C° 0 mm 1 mps 748 mmHg 96%
21:00 -24°C° 0 mm 2 mps 748 mmHg 95%
22:00 -24°C° 0 mm 2 mps 749 mmHg 95%
23:00 -24°C° 0 mm 2 mps 749 mmHg 94%

Pasado mañana, 17 Enero, Domingo

Tiempo Temperatura Precipitaciones Viento Presión Humedad
00:00 -24°C° 0 mm 2 mps 749 mmHg 94%
01:00 -21°C° 0 mm 1 mps 749 mmHg 93%
02:00 -20°C° 0 mm 1 mps 750 mmHg 92%
03:00 -20°C° 0 mm 1 mps 750 mmHg 92%
04:00 -20°C° 0 mm 1 mps 750 mmHg 91%
05:00 -20°C° 0 mm 1 mps 750 mmHg 91%
06:00 -20°C° 0 mm 1 mps 750 mmHg 92%
07:00 -20°C° 0 mm 1 mps 750 mmHg 93%
08:00 -21°C° 0 mm 1 mps 750 mmHg 94%
09:00 -20°C° 0 mm 1 mps 751 mmHg 93%
10:00 -18°C° 0 mm 1 mps 751 mmHg 92%
11:00 -17°C° 0 mm 1 mps 751 mmHg 92%
12:00 -19°C° 0 mm 2 mps 751 mmHg 91%
13:00 -18°C° 0 mm 2 mps 751 mmHg 91%
14:00 -17°C° 0 mm 2 mps 751 mmHg 90%
15:00 -18°C° 0 mm 2 mps 751 mmHg 92%
16:00 -19°C° 0 mm 2 mps 751 mmHg 93%
17:00 -19°C° 0 mm 2 mps 751 mmHg 95%
18:00 -18°C° 0 mm 1 mps 752 mmHg 96%
19:00 -19°C° 0 mm 1 mps 752 mmHg 96%
20:00 -20°C° 0 mm 1 mps 752 mmHg 97%
21:00 -20°C° 0 mm 1 mps 752 mmHg 96%
22:00 -21°C° 0 mm 1 mps 752 mmHg 96%
23:00 -21°C° 0 mm 1 mps 752 mmHg 95%

18 Enero, Lunes

Tiempo Temperatura Precipitaciones Viento Presión Humedad
00:00 -21°C° 0 mm 1 mps 752 mmHg 94%
01:00 -21°C° 0 mm 1 mps 752 mmHg 94%
02:00 -22°C° 0 mm 1 mps 752 mmHg 93%
03:00 -22°C° 0 mm 1 mps 752 mmHg 93%
04:00 -22°C° 0 mm 1 mps 752 mmHg 93%
05:00 -22°C° 0 mm 1 mps 752 mmHg 93%
06:00 -22°C° 0 mm 1 mps 753 mmHg 93%
07:00 -22°C° 0 mm 1 mps 753 mmHg 93%
08:00 -21°C° 0 mm 1 mps 753 mmHg 93%
09:00 -20°C° 0 mm 1 mps 753 mmHg 92%
10:00 -18°C° 0 mm 1 mps 753 mmHg 91%
11:00 -17°C° 0 mm 1 mps 754 mmHg 89%
12:00 -16°C° 0 mm 1 mps 753 mmHg 89%
13:00 -15°C° 0 mm 1 mps 753 mmHg 89%
14:00 -14°C° 0 mm 1 mps 753 mmHg 89%
15:00 -15°C° 0 mm 1 mps 753 mmHg 91%
16:00 -16°C° 0 mm 1 mps 753 mmHg 93%
17:00 -17°C° 0 mm 1 mps 753 mmHg 95%
18:00 -18°C° 0 mm 1 mps 754 mmHg 95%
19:00 -18°C° 0 mm 1 mps 754 mmHg 94%
20:00 -18°C° 0 mm 1 mps 754 mmHg 94%
21:00 -18°C° 0 mm 1 mps 754 mmHg 94%
22:00 -18°C° 0 mm 1 mps 754 mmHg 94%
23:00 -18°C° 0 mm 1 mps 754 mmHg 93%

19 Enero, Martes

Tiempo Temperatura Precipitaciones Viento Presión Humedad
00:00 -19°C° 0 mm 1 mps 754 mmHg 93%
01:00 -19°C° 0 mm 1 mps 754 mmHg 93%
02:00 -19°C° 0 mm 1 mps 754 mmHg 93%
03:00 -19°C° 0 mm 1 mps 754 mmHg 93%
04:00 -19°C° 0 mm 1 mps 754 mmHg 92%
05:00 -19°C° 0 mm 1 mps 754 mmHg 92%
06:00 -19°C° 0 mm 1 mps 754 mmHg 92%
07:00 -19°C° 0 mm 1 mps 755 mmHg 91%
08:00 -20°C° 0 mm 1 mps 755 mmHg 90%
09:00 -18°C° 0 mm 1 mps 755 mmHg 88%
10:00 -17°C° 0 mm 1 mps 755 mmHg 86%
11:00 -16°C° 0 mm 1 mps 755 mmHg 84%
12:00 -15°C° 0 mm 1 mps 755 mmHg 84%
13:00 -16°C° 0 mm 2 mps 754 mmHg 84%
14:00 -15°C° 0 mm 2 mps 754 mmHg 84%
15:00 -16°C° 0 mm 2 mps 754 mmHg 85%
16:00 -17°C° 0 mm 2 mps 754 mmHg 87%
17:00 -18°C° 0 mm 2 mps 754 mmHg 89%
18:00 -19°C° 0 mm 2 mps 754 mmHg 89%
19:00 -19°C° 0 mm 2 mps 754 mmHg 90%
20:00 -19°C° 0 mm 2 mps 754 mmHg 90%
21:00 -19°C° 0 mm 2 mps 754 mmHg 90%
22:00 -19°C° 0 mm 2 mps 754 mmHg 90%
23:00 -21°C° 0 mm 3 mps 754 mmHg 90%

20 Enero, Miércoles

Tiempo Temperatura Precipitaciones Viento Presión Humedad
00:00 -21°C° 0 mm 3 mps 754 mmHg 90%
01:00 -21°C° 0 mm 3 mps 754 mmHg 91%
02:00 -19°C° 0 mm 3 mps 754 mmHg 91%
03:00 -19°C° 0 mm 3 mps 753 mmHg 92%
04:00 -18°C° 0 mm 3 mps 753 mmHg 93%
05:00 -18°C° 0 mm 3 mps 753 mmHg 94%
06:00 -18°C° 0 mm 4 mps 752 mmHg 94%
07:00 -17°C° 0 mm 4 mps 752 mmHg 95%
08:00 -16°C° 0 mm 4 mps 752 mmHg 95%
09:00 -15°C° 0 mm 4 mps 752 mmHg 95%
10:00 -14°C° 0 mm 4 mps 751 mmHg 94%
11:00 -13°C° 0 mm 5 mps 751 mmHg 94%
12:00 -12°C° 0 mm 5 mps 751 mmHg 93%
13:00 -11°C° 0 mm 5 mps 750 mmHg 93%
14:00 -11°C° 0 mm 5 mps 750 mmHg 92%
15:00 -11°C° 0 mm 5 mps 750 mmHg 92%
16:00 -11°C° 0 mm 5 mps 749 mmHg 92%
17:00 -11°C° 0 mm 5 mps 749 mmHg 91%
18:00 -11°C° 0 mm 5 mps 749 mmHg 92%
19:00 -11°C° 0 mm 5 mps 749 mmHg 92%
20:00 -12°C° 0 mm 5 mps 749 mmHg 92%
21:00 -11°C° 0 mm 4 mps 749 mmHg 93%
22:00 -11°C° 0 mm 4 mps 748 mmHg 93%
23:00 -11°C° 0 mm 4 mps 748 mmHg 93%
Mostrar más